366P/Spacewatch (2018)

Japanese version
Home page
Updated on April 13, 2018

---------------------------------------------------------------------

* Profile

Designation 366P/2018 F2
Recovery Date March 17, 2018
Magnitude 20.2 mag
Recoverer Erwin Schwab (Egelsbach, Germany)

* Orbital Elements

Epoch 2018 July 21.0 TT = JDT 2458320.5
T 2018 July 21.83910 TT                                 MPCW
q   2.2777654            (2000.0)            P               Q
n   0.15056152     Peri.  153.33448     -0.71316609     +0.68574865
a   3.4993984      Node    70.75771     -0.66750967     -0.60098534
e   0.3490980      Incl.    8.85939     -0.21406768     -0.41056718
P   6.55
From 44 observations 2005 Apr. 4-2018 Mar. 26, mean residual 0".4.

* Magnitudes Graph

        m1 = 14.0 + 5 log d + 10.0 log r

---------------------------------------------------------------------

The orbital elements are published on M.P.E.C. 2018-F152.
The magnitudes graphs are made with Comet for Windows.

---------------------------------------------------------------------

Copyright(C) Seiichi Yoshida (comet@aerith.net). All rights reserved.